Location: La Brionne
(46.1728°N, 1.7849°E)
Time: 17:20:17
(UTC+00:00)

Cosmos 1544 Rocket - Pass Details

Date: 28 October 2021
Orbit: 603 x 632 km, 82.5° (Epoch: 27 November)

Event Time Altitude Azimuth Distance (km) Brightness Sun altitude
Rises 05:54:20 0° 332° (NNW) 2,900 6.6 -6.5°
Reaches altitude 10° 05:57:34 10° 307° (NW) 1,981 5.6 -5.9°
Maximum altitude 05:59:45 14° 277° (W) 1,739 5.2 -5.6°
Drops below altitude 10° 06:01:55 10° 247° (WSW) 1,964 5.7 -5.2°
Sets 06:05:06 0° 221° (SW) 2,856 6.7 -4.7°
